Regional Weather Roundup
Issued by NWS

Home | Current Version | Previous Version | Graphics & Text | Print | Product List | Glossary On
Versions: 1 2 3 4 5 6 7 8 9 10 11 12 13 14 15 16 17 18 19 20 21 22 23 24 25 26 27 28 29 30 31 32 33 34 35 36 37 38 39 40 41 42 43 44 45 46 47 48 49 50
000
ASUS43 KDTX 241501
RWRMI
MICHIGAN HOURLY REGIONAL WEATHER ROUNDUP
NATIONAL WEATHER SERVICE DETROIT/PONTIAC MI
1100 AM EDT SUN JUL 24 2016

NOTE: "FAIR" INDICATES FEW OR NO CLOUDS BELOW 12,000 FEET WITH NO
SIGNIFICANT WEATHER AND/OR OBSTRUCTION TO VISIBILITY.

MIZ047>049-052>055-059>063-066>070-074>076-081>083-241600-
SOUTHEAST LOWER MICHIGAN

CITY           SKY/WX    TMP DP  RH WIND       PRES   REMARKS
ADRIAN         CLOUDY    75  73  93 W9        30.00S
ALMA           LGT RAIN  73  73 100 S9G16     29.93F
ANN ARBOR      CLOUDY    76  73  91 MISG      29.97F
BAD AXE        CLOUDY    73  64  73 S9        29.93F
CARO           HVY RAIN  69  67  93 S6        29.92F
DETROIT CITY   LGT RAIN  79  73  82 NW8       29.97R
DETROIT        CLOUDY    79  71  76 CALM      29.96F
FLINT          LGT RAIN  74  70  87 W5        29.96F
GROSSE ILE     LGT RAIN  79  74  84 SW6       29.95F
HOWELL         RAIN      71  70  98 CALM      29.98R

CITY           SKY/WX    TMP DP  RH WIND       PRES   REMARKS
JACKSON        LGT RAIN  71  70  96 W10       30.01F
LAMBERTVILLE   CLOUDY    80  73  79 SW5       29.98S
LANSING        LGT RAIN  72  70  93 S6        29.97S FOG
LAPEER         DRIZZLE   70  68  95 CALM      29.96F
MASON          RAIN      71  70  96 S6        29.98F
MONROE         CLOUDY    79  74  84 S6        29.95F
MT. CLEMENS    TSTM      77  70  78 NW16G24   29.98R
PONTIAC        LGT RAIN  72  70  93 E5        29.96F FOG
PORT HOPE        N/A     75  64  68 SE6       29.92F
PORT HURON     CLOUDY    75  68  78 SE3       29.96S
TRI CITIES     LGT RAIN  71  70  96 S10       29.89F
MIDLAND        LGT RAIN  71  70  96 SW5       29.91S
TROY           CLOUDY    74  72  91 CALM      29.98F
SAGINAW HB     RAIN      70  68  94 S10       29.90F
$$
MIZ043>046-050>051-056>058-064>065-071>073-077>080-241600-
SOUTHWEST LOWER MICHIGAN

CITY           SKY/WX    TMP DP  RH WIND       PRES   REMARKS
BATTLE CREEK   HVY RAIN  67  67 100 SW14      30.01F FOG
BENTON HARBOR  CLOUDY    78  72  81 VRB7      29.94S
BIG RAPIDS     RAIN      70  70 100 S7        29.90F
COLDWATER      CLOUDY    73  72  97 N9        30.03R
FREMONT        LGT RAIN  69  69 100 S6        29.92S
HOLLAND        TSTM      70  68  93 SE6       29.95S
GRAND RAPIDS   TSTM      69  67  93 SW8       29.95F
IONIA          RAIN      70  68  95 SW8       29.94F
KALAMAZOO      LGT RAIN  71  67  87 CALM      30.00F FOG
LUDINGTON      CLOUDY    72  70  94 S5        29.86S
MARSHALL       CLOUDY    70  70 100 SW7       30.00F
MOUNT PLEASANT CLOUDY    72  71  96 SW8       29.92R
MUSKEGON       CLOUDY    72  70  93 SE5       29.92F
SOUTH HAVEN    CLOUDY    72  70  93 E6        29.97S
$$
MIZ016>042-241600-
NORTHERN LOWER MICHIGAN

CITY           SKY/WX    TMP DP  RH WIND       PRES   REMARKS
ALPENA         PTSUNNY   77  67  71 S15       29.89F
BEAVER ISLAND  PTSUNNY   74  70  86 S8        29.80F
BELLAIRE       PTSUNNY   78  70  75 S7        29.85S
CADILLAC       CLOUDY    74  69  85 S10       29.88F
CHARLEVOIX     SUNNY     81  70  68 S10       29.86S
FRANKFORT      CLOUDY    75  69  82 S5        29.84R
GAYLORD        CLOUDY    79  67  66 SW12      29.88F
GRAYLING       CLOUDY    76  70  81 S7        29.89F
HARBOR SPRINGS PTSUNNY   78  69  76 SW3       29.83F
HOUGHTON LAKE  CLOUDY    73  69  87 S7        29.91F
MANISTEE       CLOUDY    74  71  91 S9        29.84F
OSCODA         CLOUDY    72  67  83 S5        29.92R
PELLSTON       CLOUDY    74  66  76 SE5       29.84F
ROGERS CITY    CLOUDY    76  67  72 S8        29.87F
TRAVERSE CITY  PTSUNNY   78  70  76 S3        29.83S
$$
MIZ007>008-015-241600-
EASTERN UPPER MICHIGAN

CITY           SKY/WX    TMP DP  RH WIND       PRES   REMARKS
KINROSS        CLOUDY    67  66  97 SE10      29.84F
MACKINAC ISLAN CLOUDY    70  69  96 SE6       29.83F
NEWBERRY       CLOUDY    67  67  97 S9G18     29.80S FOG
S. S. MARIE    CLOUDY    67  65  93 SE10      29.85F FOG
MUNISING         N/A     74  71  91 S10       29.76R
$$
MIZ004>006-011>014-085-241600-
CENTRAL UPPER MICHIGAN

CITY           SKY/WX    TMP DP  RH WIND       PRES   REMARKS
MANISTIQUE     FOG       69  68  97 S13G20    29.79R VSB 1/4
ESCANABA       CLOUDY    73  70  88 SW9       29.78R
SAWYER-GWINN   CLOUDY    70  68  94 W9        29.80R
$$
MIZ001>003-009>011-084-241600-
WESTERN UPPER MICHIGAN

CITY           SKY/WX    TMP DP  RH WIND       PRES   REMARKS
IRON MOUNTAIN  CLOUDY    75  69  81 SW6       29.79R
HOUGHTON       CLOUDY    72  68  87 SW8       29.73S
COPPER HARBOR    N/A     70  67  90 SW9       29.71R
IRONWOOD       MOSUNNY   75  68  78 SW12      29.75F
$$

ABBREVIATIONS USED IN REMARKS
   TC - TEMPERATURE IN CELSIUS
  WCI - WIND CHILL INDEX
   HX - HEAT INDEX
  VSB - VISIBILITY





USA.gov is the U.S. government's official web portal to all federal, state and local government web resources and services.